Location: Claflin County Park
(44.8478°N, 87.5507°W)
Time: 18:34:01
(UTC+00:00)

Cosmos 1980 Rocket - Visible Passes

Search period start: 07 March 2026 00:00
Search period end: 17 March 2026 00:00
Orbit: 828 x 848 km, 71.0° (Epoch: 7 March)

Date Brightness Start Highest point End Pass type
(mag) Time Alt. Az. Time Alt. Az. Time Alt. Az.
14 Mar 5.1 07:09:39 10° N 07:09:39 10° N 07:09:42 10° N visible
15 Mar 5.1 06:53:37 10° N 06:53:37 10° N 06:53:43 10° N visible
16 Mar 5.1 06:37:32 11° N 06:37:32 11° N 06:37:45 10° N visible
